Location: Cartignies
(50.0929°N, 3.8447°E)
Time: 13:42:49
(UTC+00:00)

Cosmos 2181 Rocket - Pass Details

Date: 12 January 2026
Orbit: 952 x 1013 km, 82.9° (Epoch: 16 February)

Event Time Altitude Azimuth Distance (km) Brightness Sun altitude
Rises 17:22:55 0° 161° (SSE) 3,618 7.0 -11.8°
Reaches altitude 10° 17:25:32 10° 154° (SSE) 2,680 6.2 -12.1°
Maximum altitude 17:31:09 39° 88° (E) 1,405 4.4 -13.0°
Drops below altitude 10° 17:36:50 10° 22° (NNE) 2,725 6.0 -13.9°
Sets 17:39:31 0° 15° (NNE) 3,686 6.7 -14.3°
